Regional Weather Roundup
Issued by NWS Grand Forks, ND

Home | Current Version | Previous Version | Graphics & Text | Print | Product List | Glossary On
Versions: 1 2 3 4 5 6 7 8 9 10 11 12 13 14 15 16 17 18 19 20 21 22 23 24 25 26 27 28 29 30 31 32 33 34 35 36 37 38 39 40 41 42 43 44 45 46 47 48 49 50
457
ASUS43 KFGF 290131
RWRFGF
PRAIRIE TO PINES  WEATHER ROUNDUP
NATIONAL WEATHER SERVICE EASTERN NORTH DAKOTA/GRAND FORKS ND
800 PM CDT THU JUL 28 2016

 **SATELLITE DATA USED TO AUGMENT SKY COVER AT AUTOMATED STATIONS**
 *****  WEATHER ACROSS EASTERN NORTH DAKOTA  *****

CITY           SKY/WX    TMP DP  RH WIND       PRES   REMARKS
GRAND FORKS    CLEAR     73  54  51 N10       30.07S
GRAND FRKS AFB CLEAR     72  56  56 NE9       30.08
GRAND FRKS NWS   N/A     68 N/A N/A N3          N/A
DEVILS LAKE    SUNNY     71  58  63 N3        30.11R
FARGO          CLEAR     75  60  59 N8        30.06R
WAHPETON ARPT  PTCLDY    72  59  64 N5        30.05R
$$

 ***** WEATHER ACROSS CENTRAL AND WESTERN NORTH DAKOTA  *****

CITY           SKY/WX    TMP DP  RH WIND       PRES   REMARKS
BISMARCK       CLOUDY    73  55  53 N8        30.11S
MINOT          SUNNY     76  53  44 E6        30.11S
JAMESTOWN      MOSUNNY   70  62  76 NE5       30.08S
MINOT AFB      NOT AVBL
GARRISON         N/A     70  57  63 NW3       30.13R
WILLISTON      MOSUNNY   75  52  44 E8        30.12R
DICKINSON      PTSUNNY   65  57  75 E8        30.13S
HETTINGER      PTSUNNY   68  58  70 E8        30.15S
$$

 *****  OTHER AIRPORT OBSERVATIONS IN OUR AREA  *****

CITY           SKY/WX    TMP DP  RH WIND       PRES   REMARKS
WALHALLA       FAIR      68  64  88 N3        30.10S
GRAFTON AIRPOR FAIR      70  57  64 N6        30.09F
VALLEY CITY AR FAIR      70  63  78 NE7       30.10S
CANDO          FAIR      68  57  68 N5        30.14R
CAVALIER APRT  FAIR      72  55  56 NE5       30.09S
GWINNER        FAIR      73  63  68 NE7       30.07R
ROLLA          FAIR      68  54  60 CALM      30.13S
 ***** THE ABOVE OBSERVATIONS ARE NON NWS ARE NOT QUALITY
       CONTROLLED AND MAY MIS-REPORT RAIN FOR SNOW...
$$

  *****  WEATHER ACROSS NORTHERN MINNESOTA  *****

CITY           SKY/WX    TMP DP  RH WIND       PRES   REMARKS
FLAG ISLAND    CLEAR     72  54  53 CALM      30.08S
WARROAD        CLEAR     72  57  60 CALM      30.09F
ROSEAU         CLEAR     70  61  73 E3        30.09S
HALLOCK        CLEAR     72  57  60 N3        30.07F
THF RVR FALLS  CLEAR     72  55  55 N5        30.09F
BAUDETTE       CLEAR     71  55  56 N5        30.08S
WASKISH        CLEAR     72  57  60 N3        30.07S
CROOKSTON      CLEAR     70  57  64 N3        30.07F
STEPHEN NDAWN    N/A     73  59  60 N3          N/A
GREENBUSH NDAW   N/A     73  57  56 N3          N/A
$$
  *****  WEATHER ACROSS CENTRAL AND WEST MINNESOTA  *****

CITY           SKY/WX    TMP DP  RH WIND       PRES   REMARKS
FOSSTON        CLEAR     70  55  60 N6        30.09S
BEMIDJI        CLEAR     70  55  60 VRB5      30.07F
PARK RAPIDS    PTCLDY    74  55  51 NE6       30.07S
ELBOW LAKE     MOCLDY    72  62  71 SE6       30.06S
WADENA         PTCLDY    72  57  60 E3        30.07R
DETROIT LAKES  PTCLDY    72  57  60 N5        30.09R
MOORHEAD       CLEAR     73  61  64 N7        30.07R
FERGUS FALLS   CLEAR     73  61  64 CALM      30.05S
MORRIS MN      PTCLDY    72  61  68 E5        30.05R
STAPLES        CLEAR     73  55  53 NE3       30.07R
$$
  *****  WEATHER ELSEWHERE ACROSS MINNESOTA  *****

CITY           SKY/WX    TMP DP  RH WIND       PRES   REMARKS
DULUTH         PTCLDY    65  50  58 E8        30.09S
INTRNTL FALLS  CLEAR     74  52  46 CALM      30.06F
ELY            CLEAR     66  52  59 SE8       30.08S
CLOQUET        CLEAR     64  52  63 CALM      30.09S
WHEATON        PTCLDY    75  66  73 N3        30.06S
BRAINERD       PTCLDY    72  59  63 SE7       30.06S
HIBBING        CLOUDY    67  54  63 SE7       30.08R
ALEXANDRIA     MOCLDY    72  56  57 E6        30.07F
SAINT CLOUD    PTCLDY    71  55  56 NE5       30.06R
MINNEAPOLIS    MOCLDY    74  58  57 VRB7      30.03S
$$

  *****  WEATHER ACROSS SOUTH DAKOTA  *****

CITY           SKY/WX    TMP DP  RH WIND       PRES   REMARKS
SIOUX FALLS    MOCLDY    71  58  63 NE8       30.04F
BROOKINGS      CLEAR     72  56  57 E8        30.06S
WATERTOWN      CLEAR     74  55  51 NE8       30.07R
HURON          CLOUDY    76  58  53 E7        30.03S
SISSETON         N/A     74  62  66 NE10      30.04S
ABERDEEN       PTCLDY    77  59  53 E5        30.05S
MITCHELL       CLOUDY    76  60  57 E9        30.03S
PIERRE         CLOUDY    66  62  87 W5        30.08R
MOBRIDGE       PTSUNNY   76  54  46 N7        30.07R
RAPID CITY     PTSUNNY   72  57  59 NE6       30.13S
$$

  *****  SOME WEATHER IN NEARBY STATES *****

CITY           SKY/WX    TMP DP  RH WIND       PRES   REMARKS
GLASGOW MT     PTSUNNY   77  50  38 S5        30.09S
GREAT FALLS MT SUNNY     84  41  21 MISG      30.08F
CHEYENNE WY    CLOUDY    68  57  68 E10       30.25S
SCOTTSBLUFF NE SUNNY     79  57  46 E8        30.14S
OMAHA NE       CLOUDY    78  63  59 NE8       29.99R
DES MOINES IA  PTCLDY    77  61  57 N7        29.97R
DAVENPORT IA   CLEAR     76  66  71 NW6       29.89F
CHICAGO IL     CLOUDY    72  68  87 N9        29.92R
EAU CLAIRE WI  CLOUDY    66  61  84 CALM      30.02R
LA CROSSE WI   LGT RAIN  66  64  93 N7        29.97S
$$

  *****  SOME NATIONAL WEATHER *****

CITY           SKY/WX    TMP DP  RH WIND       PRES   REMARKS
LA GUARDIA NY  CLOUDY    82  68  62 W5        29.86S
RALEIGH NC     PTCLDY    88  71  57 SW12      29.84R HX  94
ATLANTA GA     CLOUDY    83  71  67 W10       29.99S
NEW ORLEANS LA CLOUDY    85  72  65 CALM      30.01R HX  91
OKLAHOMA CITY  MOCLDY    86  71  60 NE13G20   29.93F HX  91
ALBUQUERQUE NM PTSUNNY   89  46  22 SE17      30.10S
SALT LAKE CITY MOSUNNY  100  29   8 NW8       30.00F HX  93
LOS ANGELES CA MOSUNNY   75  66  73 W13       29.83S
BOISE ID       SUNNY     98  31   9 N13       29.95F HX  92
SEATTLE WA     MOSUNNY   87  58  37 N14       30.05F
$$

*** WEATHER ACROSS MANITOBA...SASKATCHEWAN AND ONTARIO ***
                ***ONTARIO***

CITY           SKY/WX    TMP DP  RH WIND       PRES   REMARKS
GERALDTON      PTCLDY    68  52  56 NW6       30.07S
THUNDER BAY    PTCLDY    68  54  60 S5        30.07S
SIOUX LOOKOUT  PTCLDY    66  55  68 VRB2      30.08F
TORONTO        MOCLDY    81  57  44 SE5       29.89S
BIG TROUT LK   CLEAR     70  55  60 SW2       30.04F
PICKLE LAKE    PTCLDY    70  43  37 NE5       30.08S
DRYDEN         CLEAR     70  48  46 NE6       30.09S
KENORA         PTCLDY    72  52  49 NE3       30.09F
$$
                *** MANITOBA***

CITY           SKY/WX    TMP DP  RH WIND       PRES   REMARKS
BRANDON        MOSUNNY   73  55  53 SW2       30.09F
DAUPHIN        SUNNY     75  61  60 S3        30.06S
ISLAND LAKE    PTSUNNY   73  59  60 CALM      30.03F
PILOT MOUND      N/A     70  54  56 NE5         N/A
THE PAS        MOSUNNY   75  63  64 W12       30.00S
THOMPSON       PTSUNNY   72  63  73 SW2       30.00S
WINNIPEG       MOSUNNY   72  59  64 NW5       30.09S
LYNN LAKE      SUNNY     75  54  46 MISG      30.00F
CHURCHILL      MOSUNNY   55  45  67 E8        30.09R
GILLAM         TSTM      61  59  94 SE3       30.05R
$$
                ***SASKATCHEWAN***

CITY           SKY/WX    TMP DP  RH WIND       PRES   REMARKS
ESTEVAN        PTSUNNY   72  55  56 E3        30.12S
KINDERSLEY     TSTM      63  59  88 N5        30.09F
LLOYDMINSTER   PTSUNNY   72  59  64 S10       30.05F
PRINCE ALBERT  TSTM      68  59  73 S12G23    30.03F
REGINA         MOSUNNY   75  50  41 S5        30.11R
YORKTON        SUNNY     75  55  50 W6        30.09F
N. BATTLEFORD  NOT AVBL
LA RONGE       CLOUDY    70  61  73 W14G22    30.02R
SASKATOON      PTSUNNY   75  59  57 W6        30.07F
SWIFT CURRENT  SUNNY     75  55  50 S3        30.10F
$$
NOTE: THESE ARE AUTOMATED STATIONS WITH LIMITED QUALITY CONTROL
      "FAIR" INDICATES FEW OR NO CLOUDS BELOW 12,000 FEET WITH NO
      SIGNIFICANT WEATHER AND/OR OBSTRUCTIONS TO VISIBILITY.
      SKY/WX - SKY CONDITION AND SIGNIFICANT WEATHER.
      TMP - AIR TEMPERATURE.    DP   - DEWPOINT TEMPERATURE.
      RH  - RELATIVE HUMIDITY.  PRES - PRESSURE.
      HX  - HEAT INDEX.         WCI  - WIND CHILL INDEX.
$




USA.gov is the U.S. government's official web portal to all federal, state and local government web resources and services.